Total_Precipitation_Accumulation
0.00 0.00 0.11 0.04 0.11 0.04 0.06 0.10 0.12 0.10 0.09 0.10 0.06 0.00 0.00 0.02 0.03 0.07 0.23 0.03 0.03 0.04 0.16 1.69 0.94 0.41 0.20 0.19 0.23 0.20 0.20 0.16 0.13 0.08 0.05 0.02 0.01 0.00 0.00 0.00 0.00 0.00 0.00 0.00 0.01 0.02 0.01 0.00 0.00
0.04 0.03 0.06 0.10 0.07 0.01 0.02 0.02 0.04 0.04 0.03 0.03 0.02 0.01 0.00 0.00 0.00 0.04 0.16 0.05 0.02 0.04 0.02 1.38 1.30 0.44 0.19 0.28 0.34 0.33 0.20 0.11 0.08 0.05 0.04 0.01 0.00 0.00 0.00 0.00 0.00 0.00 0.00 0.00 0.00 0.00 0.00 0.00 0.00
0.16 0.18 0.35 0.16 0.02 0.00 0.00 0.05 0.03 0.01 0.00 0.00 0.00 0.00 0.00 0.02 0.00 0.03 0.05 0.04 0.07 0.04 0.02 0.93 1.28 0.50 0.33 0.54 0.47 0.31 0.21 0.07 0.03 0.02 0.01 0.00 0.00 0.01 0.01 0.01 0.00 0.00 0.00 0.00 0.00 0.00 0.00 0.00 0.00
0.14 0.35 0.24 0.06 0.00 0.00 0.00 0.01 0.01 0.00 0.00 0.00 0.00 0.00 0.01 0.01 0.01 0.01 0.03 0.07 0.06 0.04 0.13 0.71 1.60 0.90 0.36 0.59 0.65 0.26 0.11 0.06 0.05 0.02 0.01 0.01 0.01 0.01 0.01 0.01 0.00 0.00 0.00 0.00 0.00 0.00 0.00 0.00 0.00
0.10 0.41 0.18 0.03 0.00 0.00 0.00 0.00 0.00 0.00 0.00 0.00 0.00 0.00 0.02 0.02 0.01 0.02 0.02 0.04 0.05 0.04 0.11 0.64 1.28 1.80 1.64 1.62 0.83 0.32 0.12 0.06 0.10 0.06 0.03 0.02 0.02 0.02 0.02 0.02 0.00 0.00 0.00 0.00 0.00 0.00 0.00 0.00 0.00
0.42 0.34 0.02 0.00 0.00 0.00 0.00 0.00 0.00 0.00 0.00 0.00 0.00 0.00 0.02 0.08 0.03 0.03 0.01 0.02 0.11 0.08 0.05 0.66 1.52 1.66 2.15 2.25 0.94 0.29 0.13 0.09 0.12 0.09 0.04 0.01 0.05 0.06 0.09 0.04 0.01 0.00 0.00 0.00 0.00 0.00 0.00 0.00 0.03
0.43 0.10 0.00 0.00 0.00 0.00 0.00 0.00 0.00 0.00 0.00 0.00 0.00 0.00 0.04 0.11 0.02 0.04 0.01 0.03 0.14 0.15 0.02 0.17 0.99 2.38 4.08 2.38 1.21 0.41 0.22 0.10 0.13 0.07 0.03 0.12 0.12 0.06 0.04 0.01 0.00 0.00 0.00 0.00 0.00 0.00 0.01 0.05 0.06
0.16 0.08 0.00 0.00 0.00 0.00 0.00 0.00 0.00 0.00 0.00 0.00 0.00 0.00 0.01 0.02 0.02 0.04 0.02 0.02 0.03 0.07 0.05 0.05 0.55 2.45 3.34 1.82 1.12 0.65 0.24 0.14 0.08 0.10 0.28 0.28 0.16 0.04 0.01 0.00 0.00 0.00 0.00 0.00 0.00 0.02 0.05 0.06 0.04
0.17 0.03 0.00 0.00 0.00 0.00 0.00 0.00 0.00 0.00 0.00 0.00 0.00 0.00 0.00 0.00 0.01 0.02 0.04 0.03 0.05 0.16 0.14 0.12 0.30 0.82 1.01 0.94 0.66 0.61 0.46 0.18 0.26 0.33 0.48 0.39 0.14 0.01 0.01 0.00 0.00 0.00 0.00 0.01 0.02 0.03 0.05 0.04 0.00
0.10 0.01 0.00 0.00 0.00 0.00 0.00 0.00 0.00 0.00 0.00 0.00 0.00 0.00 0.01 0.02 0.02 0.03 0.02 0.07 0.05 0.13 0.20 0.25 0.25 0.26 0.44 0.35 0.47 0.50 0.44 0.30 0.34 0.50 0.35 0.17 0.06 0.01 0.00 0.00 0.00 0.00 0.02 0.00 0.00 0.00 0.00 0.00 0.00
0.01 0.00 0.00 0.00 0.00 0.00 0.00 0.00 0.00 0.00 0.00 0.00 0.00 0.00 0.00 0.00 0.01 0.02 0.01 0.04 0.02 0.07 0.21 0.26 0.18 0.20 0.26 0.34 0.30 0.37 0.47 0.35 0.31 0.73 0.31 0.10 0.01 0.00 0.00 0.00 0.00 0.00 0.00 0.00 0.01 0.00 0.00 0.00 0.00
0.02 0.00 0.00 0.00 0.00 0.00 0.00 0.00 0.00 0.00 0.00 0.00 0.00 0.00 0.00 0.00 0.00 0.01 0.00 0.01 0.01 0.03 0.15 0.20 0.25 0.27 0.28 0.39 0.12 0.14 0.24 0.39 0.37 0.50 0.19 0.04 0.01 0.00 0.00 0.00 0.00 0.00 0.00 0.00 0.00 0.00 0.00 0.01 0.01
0.01 0.00 0.00 0.00 0.00 0.00 0.00 0.00 0.00 0.00 0.00 0.00 0.00 0.00 0.00 0.00 0.00 0.00 0.00 0.00 0.01 0.02 0.14 0.31 0.30 0.26 0.22 0.72 0.28 0.14 0.07 0.12 0.20 0.34 0.07 0.02 0.00 0.00 0.00 0.00 0.00 0.00 0.00 0.00 0.00 0.00 0.00 0.00 0.02
0.02 0.00 0.00 0.00 0.00 0.01 0.02 0.00 0.00 0.00 0.00 0.00 0.00 0.00 0.00 0.00 0.00 0.00 0.00 0.00 0.01 0.02 0.09 0.33 0.35 0.15 0.14 0.41 0.53 0.08 0.07 0.07 0.05 0.11 0.02 0.01 0.00 0.00 0.00 0.00 0.00 0.00 0.00 0.00 0.00 0.00 0.00 0.00 0.02
0.00 0.00 0.00 0.00 0.00 0.01 0.01 0.00 0.00 0.00 0.00 0.00 0.00 0.00 0.00 0.00 0.00 0.00 0.00 0.00 0.00 0.01 0.02 0.18 0.31 0.16 0.12 0.22 0.22 0.06 0.02 0.04 0.04 0.05 0.06 0.00 0.00 0.00 0.00 0.00 0.00 0.00 0.01 0.00 0.00 0.00 0.00 0.02 0.08
0.01 0.03 0.08 0.05 0.02 0.04 0.03 0.08 0.00 0.00 0.00 0.00 0.00 0.00 0.00 0.00 0.00 0.00 0.00 0.00 0.00 0.00 0.02 0.05 0.19 0.16 0.16 0.23 0.18 0.07 0.03 0.01 0.01 0.06 0.04 0.01 0.00 0.00 0.00 0.00 0.00 0.00 0.00 0.00 0.01 0.01 0.03 0.03 0.01
0.02 0.13 0.47 0.31 0.05 0.03 0.00 0.20 0.02 0.00 0.00 0.00 0.00 0.00 0.00 0.00 0.00 0.00 0.00 0.00 0.00 0.00 0.01 0.02 0.16 0.13 0.22 0.34 0.53 0.12 0.03 0.01 0.00 0.02 0.04 0.03 0.01 0.00 0.00 0.00 0.00 0.00 0.00 0.00 0.07 0.04 0.01 0.05 0.02
0.15 0.07 0.05 0.06 0.18 0.02 0.01 0.02 0.03 0.01 0.01 0.03 0.03 0.01 0.01 0.00 0.04 0.03 0.01 0.00 0.00 0.00 0.01 0.03 0.20 0.13 0.13 0.21 0.32 0.15 0.10 0.01 0.00 0.00 0.02 0.01 0.00 0.00 0.00 0.00 0.00 0.00 0.01 0.04 0.03 0.05 0.01 0.01 0.00
0.02 0.02 0.06 0.06 0.09 0.10 0.06 0.09 0.09 0.20 0.17 0.04 0.03 0.05 0.06 0.05 0.15 0.02 0.01 0.00 0.00 0.00 0.00 0.03 0.21 0.16 0.08 0.12 0.08 0.11 0.07 0.01 0.00 0.00 0.01 0.01 0.00 0.00 0.00 0.00 0.00 0.00 0.01 0.01 0.01 0.02 0.07 0.20 0.02
0.06 0.04 0.11 0.04 0.21 0.10 0.05 0.04 0.03 0.07 0.11 0.03 0.01 0.11 0.16 0.09 0.05 0.04 0.06 0.00 0.00 0.00 0.00 0.02 0.13 0.20 0.16 0.14 0.13 0.15 0.14 0.01 0.00 0.00 0.00 0.00 0.00 0.00 0.00 0.00 0.00 0.00 0.00 0.00 0.18 0.19 0.24 0.30 0.12
0.08 0.09 0.11 0.02 0.05 0.12 0.20 0.14 0.04 0.12 0.09 0.04 0.01 0.01 0.09 0.23 0.12 0.10 0.11 0.02 0.01 0.01 0.00 0.01 0.02 0.05 0.18 0.19 0.25 0.19 0.12 0.03 0.00 0.02 0.00 0.00 0.00 0.01 0.01 0.00 0.00 0.00 0.00 0.06 0.31 0.44 0.53 0.65 0.55
0.16 0.08 0.17 0.22 0.13 0.09 0.16 0.23 0.10 0.32 0.12 0.02 0.01 0.01 0.04 0.11 0.07 0.06 0.14 0.06 0.03 0.03 0.02 0.03 0.04 0.03 0.16 0.24 0.27 0.18 0.14 0.08 0.02 0.01 0.01 0.05 0.08 0.14 0.11 0.03 0.02 0.04 0.10 0.28 0.45 0.31 0.33 0.47 0.65
0.04 0.11 0.09 0.16 0.13 0.07 0.09 0.11 0.09 0.24 0.09 0.02 0.01 0.00 0.02 0.00 0.05 0.09 0.07 0.07 0.02 0.02 0.03 0.02 0.07 0.07 0.14 0.25 0.41 0.36 0.26 0.20 0.08 0.01 0.05 0.15 0.19 0.17 0.16 0.12 0.19 0.31 0.41 0.45 0.37 0.39 0.27 0.12 0.46
0.06 0.14 0.07 0.06 0.09 0.16 0.25 0.14 0.11 0.16 0.04 0.02 0.04 0.02 0.02 0.04 0.06 0.26 0.20 0.07 0.05 0.03 0.03 0.02 0.04 0.11 0.14 0.15 0.30 0.33 0.31 0.30 0.16 0.15 0.11 0.10 0.13 0.16 0.19 0.23 0.26 0.26 0.34 0.42 0.36 0.29 0.44 0.28 0.31
0.04 0.03 0.05 0.19 0.43 0.51 0.14 0.01 0.11 0.04 0.01 0.02 0.01 0.01 0.01 0.01 0.01 0.06 0.10 0.12 0.07 0.03 0.03 0.02 0.02 0.07 0.15 0.17 0.14 0.23 0.34 0.34 0.24 0.35 0.34 0.27 0.33 0.47 0.43 0.27 0.15 0.51 0.85 0.26 0.19 0.36 0.40 0.38 0.39
0.06 0.09 0.12 0.13 0.09 0.20 0.12 0.20 0.25 0.23 0.02 0.01 0.02 0.05 0.03 0.01 0.00 0.01 0.00 0.05 0.03 0.02 0.03 0.03 0.01 0.02 0.11 0.20 0.18 0.19 0.22 0.32 0.28 0.36 0.40 0.52 0.51 0.56 0.47 0.22 0.30 0.88 0.72 0.24 0.22 0.33 0.23 0.10 0.12
0.03 0.03 0.02 0.02 0.00 0.06 0.14 0.16 0.20 0.03 0.00 0.00 0.01 0.01 0.01 0.01 0.00 0.00 0.00 0.03 0.04 0.01 0.00 0.00 0.00 0.00 0.01 0.12 0.20 0.17 0.18 0.30 0.45 0.46 0.42 0.58 0.65 0.52 0.30 0.21 0.29 0.32 0.24 0.20 0.15 0.09 0.03 0.01 0.00
0.03 0.03 0.02 0.04 0.06 0.14 0.19 0.33 0.42 0.04 0.01 0.00 0.02 0.00 0.00 0.00 0.00 0.00 0.00 0.00 0.03 0.01 0.00 0.00 0.00 0.00 0.01 0.05 0.11 0.12 0.16 0.23 0.45 0.56 0.50 0.43 0.55 0.46 0.50 0.42 0.28 0.17 0.10 0.05 0.02 0.00 0.00 0.00 0.00
0.03 0.01 0.00 0.02 0.13 0.16 0.08 0.23 0.11 0.00 0.01 0.01 0.03 0.01 0.00 0.00 0.00 0.00 0.00 0.00 0.00 0.00 0.00 0.00 0.00 0.02 0.03 0.13 0.11 0.22 0.24 0.10 0.25 0.23 0.26 0.41 0.50 0.39 0.31 0.18 0.05 0.01 0.00 0.00 0.00 0.00 0.00 0.00 0.00
0.02 0.01 0.00 0.00 0.02 0.05 0.02 0.05 0.10 0.01 0.01 0.01 0.00 0.01 0.00 0.00 0.00 0.00 0.01 0.00 0.00 0.00 0.00 0.00 0.00 0.02 0.02 0.01 0.07 0.12 0.18 0.20 0.17 0.23 0.31 0.29 0.42 0.42 0.22 0.04 0.00 0.00 0.00 0.00 0.00 0.00 0.00 0.00 0.00